Ardmore, OK

3:27 PM CDT on April 19, 2018 (GMT -0500)
Ardmore Municipal

Weather History for KADM - February, 2012

Change the Weather History Date:

Sunday, February 12, 2012

  Actual Average Record
Temperature  
Mean Temperature 32 °F -  
Max Temperature 41 °F 54 °F 73 °F (2009)
Min Temperature 23 °F 36 °F 18 °F (2018)
Degree Days  
Heating Degree Days 33    
Moisture  
Dew Point 19 °F    
Average Humidity 71    
Maximum Humidity 100    
Minimum Humidity 42    
Precipitation  
Precipitation 0.02 in - - ()
Sea Level Pressure  
Sea Level Pressure 30.49 in    
Wind  
Wind Speed 5 mph (East)    
Max Wind Speed 13 mph    
Max Gust Speed 25 mph    
Visibility 8 miles    
Events Snow    
Averages and records for this station are not official NWS values.
T = Trace of Precipitation, MM = Missing Value Source: NWS Daily Summary

Daily Weather History Graph

Daily Weather History Graph

Search for Another Location

Airport or City:

Astronomy

Feb. 12, 2012 Rise Set
Actual Time 7:16 AM CST 6:08 PM CST
Civil Twilight 6:50 AM CST 6:34 PM CST
Nautical Twilight 6:21 AM CST 7:03 PM CST
Astronomical Twilight 5:52 AM CST 7:33 PM CST
Moon 11:48 PM CST (2/12) 9:53 AM CST (2/12)
Length of Visible Light 11h 43m
Length of Day
10h 51m
Waning Gibbous, 72% of the Moon is Illuminated
Feb 12
Waning Gibbous
Feb 14
Last Quarter
Feb 21
New
Feb 29
First Quarter
Mar 8
Full

Hourly Weather History & Observations

Time (CST) Temp. Windchill Dew Point Humidity Pressure Visibility Wind Dir Wind Speed Gust Speed Precip Events Conditions
12:15 AM 26.6 °F 20.0 °F 14.0 °F 59% 30.63 in 10.0 mi NNE 5.8 mph - N/A   Clear
12:35 AM 26.6 °F 21.2 °F 14.0 °F 59% 30.64 in 10.0 mi NNE 4.6 mph - N/A   Clear
12:55 AM 26.6 °F 22.6 °F 14.0 °F 59% 30.65 in 10.0 mi NNE 3.5 mph - N/A   Clear
1:15 AM 24.8 °F - 14.0 °F 64% 30.64 in 10.0 mi Calm Calm - N/A   Clear
1:35 AM 24.8 °F 20.5 °F 14.0 °F 64% 30.63 in 10.0 mi NNE 3.5 mph - N/A   Clear
1:55 AM 23.0 °F 15.8 °F 14.0 °F 68% 30.63 in 10.0 mi NE 5.8 mph - N/A   Clear
2:15 AM 24.8 °F 20.5 °F 14.0 °F 64% 30.63 in 10.0 mi North 3.5 mph - N/A   Clear
2:35 AM 24.8 °F 19.1 °F 14.0 °F 64% 30.62 in 10.0 mi NNE 4.6 mph - N/A   Clear
2:55 AM 23.0 °F 18.4 °F 14.0 °F 68% 30.62 in 10.0 mi North 3.5 mph - N/A   Clear
3:15 AM 23.0 °F 18.4 °F 14.0 °F 68% 30.61 in 10.0 mi North 3.5 mph - N/A   Clear
3:35 AM 23.0 °F 18.4 °F 14.0 °F 68% 30.61 in 10.0 mi North 3.5 mph - N/A   Clear
3:55 AM 23.0 °F 18.4 °F 14.0 °F 68% 30.60 in 10.0 mi NNE 3.5 mph - N/A   Mostly Cloudy
4:15 AM 23.0 °F 17.0 °F 14.0 °F 68% 30.59 in 10.0 mi NNE 4.6 mph - N/A   Mostly Cloudy
4:35 AM 26.6 °F 22.6 °F 14.0 °F 59% 30.59 in 10.0 mi NNE 3.5 mph - N/A   Overcast
4:55 AM 26.6 °F 21.2 °F 14.0 °F 59% 30.58 in 10.0 mi NNE 4.6 mph - N/A   Overcast
5:15 AM 26.6 °F 21.2 °F 14.0 °F 59% 30.59 in 10.0 mi NE 4.6 mph - N/A   Overcast
5:35 AM 26.6 °F - 14.0 °F 59% 30.58 in 10.0 mi Calm Calm - N/A   Overcast
5:55 AM 26.6 °F 22.6 °F 14.0 °F 59% 30.58 in 10.0 mi ENE 3.5 mph - N/A   Overcast
7:55 AM 26.6 °F 20.0 °F 14.0 °F 59% 30.57 in 10.0 mi ESE 5.8 mph - N/A   Overcast
9:55 AM 28.4 °F 22.2 °F 14.0 °F 55% 30.57 in 10.0 mi SE 5.8 mph - N/A   Overcast
10:55 AM 28.4 °F 22.2 °F 15.8 °F 59% 30.55 in 10.0 mi SE 5.8 mph - N/A   Scattered Clouds
1:55 PM 41.0 °F 35.2 °F 19.4 °F 42% 30.41 in 10.0 mi SSE 9.2 mph - N/A   Scattered Clouds
3:55 PM 41.0 °F 35.8 °F 19.4 °F 42% 30.33 in 10.0 mi ESE 8.1 mph - N/A   Clear
9:15 PM 35.6 °F 27.1 °F 28.4 °F 75% 30.26 in 5.0 mi South 12.7 mph 25.3 mph N/A Snow Light Snow
9:35 PM 33.8 °F 25.8 °F 32.0 °F 93% 30.27 in 2.5 mi SSE 10.4 mph - N/A Snow Light Snow
9:55 PM 32.0 °F 26.4 °F 32.0 °F 100% 30.26 in 2.5 mi SSE 5.8 mph - N/A Snow Light Snow
10:15 PM 32.0 °F 25.6 °F 32.0 °F 100% 30.26 in 2.5 mi SSE 6.9 mph - N/A Snow Light Snow
10:35 PM 32.0 °F 26.4 °F 32.0 °F 100% 30.25 in 2.5 mi SSE 5.8 mph - N/A Snow Light Snow
10:55 PM 32.0 °F 26.4 °F 32.0 °F 100% 30.24 in 2.5 mi SSE 5.8 mph - 0.01 in Snow Light Snow
11:15 PM 32.0 °F 25.6 °F 32.0 °F 100% 30.24 in 2.0 mi SSE 6.9 mph - N/A Snow Light Snow
11:55 PM 32.0 °F 26.4 °F 32.0 °F 100% 30.22 in 2.0 mi SSE 5.8 mph - 0.01 in Snow Light Snow